GFSNW_500_temp_186.txt.gz
Temp
-14 -14 -15 -15 -15 -15 -15 -15 -15 -15 -15 -15 -15 -15 -15 -15 -15 -16 -16 -15 -17 -17 -18 -17 -18 -18 -18 -18 -17 -17 -18 -18 -16 -17 -17 -18 -19 -20 -21 -22 -19 -20 -21 -20
-15 -15 -15 -15 -15 -15 -16 -15 -16 -16 -16 -16 -16 -16 -16 -16 -16 -16 -16 -15 -15 -17 -17 -18 -17 -18 -18 -18 -19 -19 -19 -18 -18 -18 -18 -18 -21 -21 -22 -21 -21 -22 -22 -21
-15 -16 -16 -16 -16 -16 -16 -16 -16 -16 -17 -17 -17 -17 -17 -17 -16 -16 -17 -16 -16 -16 -17 -18 -18 -18 -19 -19 -19 -19 -19 -19 -20 -19 -19 -19 -21 -22 -21 -21 -22 -22 -22 -22
-16 -16 -16 -16 -17 -17 -17 -17 -17 -17 -17 -17 -17 -18 -18 -18 -17 -17 -17 -18 -17 -18 -17 -19 -19 -19 -20 -20 -20 -19 -20 -20 -21 -21 -21 -21 -21 -23 -22 -23 -22 -23 -23 -23
-17 -17 -17 -17 -17 -18 -18 -18 -18 -19 -19 -19 -18 -19 -18 -18 -18 -19 -18 -18 -19 -20 -19 -21 -21 -21 -20 -20 -21 -21 -21 -22 -22 -21 -22 -23 -23 -21 -22 -23 -24 -24 -24 -24
-18 -19 -19 -18 -19 -20 -20 -19 -20 -20 -19 -20 -20 -19 -20 -20 -20 -21 -20 -21 -21 -21 -22 -22 -21 -22 -22 -22 -22 -23 -23 -23 -23 -23 -23 -24 -23 -22 -23 -23 -23 -24 -25 -25
-21 -21 -20 -20 -21 -21 -20 -20 -20 -21 -21 -21 -22 -22 -22 -22 -22 -22 -23 -23 -23 -24 -24 -24 -23 -22 -23 -23 -23 -24 -23 -24 -24 -23 -24 -24 -22 -23 -24 -24 -23 -23 -24 -24
-22 -22 -22 -22 -22 -22 -22 -22 -23 -24 -24 -24 -24 -24 -24 -24 -25 -25 -25 -25 -25 -25 -25 -24 -24 -24 -25 -24 -23 -24 -25 -24 -24 -24 -24 -24 -23 -24 -24 -24 -23 -23 -24 -24
-24 -23 -23 -23 -24 -24 -24 -24 -24 -25 -24 -24 -25 -25 -25 -25 -26 -26 -26 -26 -26 -26 -26 -25 -25 -25 -25 -24 -25 -25 -24 -24 -24 -24 -24 -24 -23 -24 -24 -24 -24 -24 -24 -24
-24 -24 -24 -24 -24 -24 -24 -24 -24 -24 -24 -24 -25 -25 -25 -26 -26 -26 -26 -26 -26 -26 -26 -26 -26 -25 -25 -25 -25 -25 -25 -25 -24 -24 -24 -24 -24 -24 -24 -24 -24 -24 -24 -24
-25 -24 -24 -25 -25 -25 -25 -25 -25 -25 -25 -25 -25 -26 -26 -26 -26 -27 -26 -26 -27 -26 -27 -26 -26 -26 -26 -26 -25 -25 -25 -25 -24 -24 -24 -25 -25 -24 -24 -24 -25 -25 -25 -24
-25 -25 -25 -26 -25 -25 -25 -25 -25 -25 -26 -26 -27 -27 -27 -27 -28 -28 -27 -27 -27 -27 -27 -27 -27 -26 -26 -25 -25 -26 -25 -25 -25 -25 -24 -25 -25 -25 -25 -25 -25 -24 -25 -25
-26 -25 -25 -25 -25 -26 -26 -26 -27 -27 -28 -28 -28 -28 -28 -28 -28 -28 -27 -27 -28 -27 -27 -27 -27 -27 -26 -26 -26 -26 -26 -26 -25 -25 -25 -25 -25 -25 -25 -25 -24 -25 -25 -25
-26 -27 -27 -27 -28 -28 -28 -29 -29 -30 -30 -29 -30 -29 -28 -29 -29 -28 -28 -28 -28 -28 -28 -27 -27 -27 -27 -27 -26 -26 -26 -26 -26 -26 -26 -25 -25 -25 -25 -25 -25 -25 -25 -25
-29 -29 -29 -29 -29 -30 -30 -30 -30 -30 -30 -30 -29 -30 -30 -30 -29 -29 -28 -28 -29 -28 -28 -28 -28 -27 -27 -27 -27 -26 -27 -26 -26 -26 -26 -26 -25 -26 -25 -25 -25 -25 -25 -25
-30 -30 -30 -30 -31 -31 -31 -31 -31 -31 -30 -30 -30 -30 -30 -29 -29 -29 -29 -28 -29 -28 -28 -28 -27 -27 -28 -27 -26 -26 -27 -27 -27 -26 -26 -26 -26 -26 -25 -25 -25 -25 -25 -25
-31 -31 -31 -31 -31 -31 -31 -31 -31 -31 -31 -30 -29 -29 -29 -30 -29 -29 -29 -29 -29 -29 -28 -27 -27 -28 -29 -28 -26 -27 -27 -27 -27 -27 -26 -26 -26 -25 -26 -25 -25 -25 -25 -25
-31 -32 -32 -31 -32 -32 -32 -32 -32 -32 -32 -31 -30 -29 -29 -30 -29 -29 -29 -29 -29 -29 -28 -28 -28 -28 -28 -27 -27 -27 -28 -27 -27 -27 -26 -26 -26 -25 -25 -25 -25 -25 -25 -26
-32 -32 -32 -32 -31 -32 -32 -32 -32 -32 -32 -31 -30 -30 -30 -30 -30 -29 -29 -29 -29 -28 -28 -28 -29 -28 -28 -28 -28 -27 -27 -27 -27 -26 -26 -26 -26 -26 -25 -25 -25 -25 -26 -26
-32 -32 -32 -32 -32 -32 -32 -32 -32 -32 -32 -31 -30 -31 -30 -31 -30 -30 -29 -29 -29 -28 -28 -29 -28 -28 -28 -28 -28 -27 -27 -27 -27 -26 -26 -26 -26 -26 -26 -26 -26 -26 -26 -26
-32 -32 -32 -32 -32 -32 -32 -32 -32 -32 -32 -31 -31 -31 -31 -31 -30 -30 -29 -29 -29 -28 -28 -28 -28 -28 -28 -27 -27 -27 -27 -27 -27 -26 -26 -26 -26 -26 -26 -26 -26 -26 -26 -27
-32 -32 -32 -32 -32 -32 -32 -32 -33 -33 -32 -32 -32 -31 -30 -31 -30 -30 -30 -29 -29 -28 -28 -28 -28 -28 -28 -28 -27 -27 -27 -27 -26 -26 -26 -26 -25 -26 -26 -26 -26 -26 -26 -26
-32 -32 -33 -33 -32 -32 -32 -32 -32 -31 -32 -31 -32 -31 -30 -30 -30 -30 -30 -29 -29 -29 -29 -28 -28 -28 -28 -28 -28 -27 -27 -27 -26 -26 -26 -26 -26 -26 -26 -26 -26 -26 -26 -26
-32 -32 -32 -32 -31 -31 -31 -31 -31 -31 -31 -31 -31 -31 -30 -30 -30 -30 -30 -29 -29 -29 -28 -29 -28 -28 -28 -28 -28 -27 -27 -28 -27 -27 -27 -26 -26 -26 -26 -26 -26 -26 -26 -26
-31 -31 -31 -31 -31 -31 -31 -30 -30 -30 -30 -30 -30 -30 -30 -30 -30 -30 -29 -29 -29 -28 -29 -28 -28 -28 -28 -28 -28 -28 -28 -27 -27 -27 -27 -26 -26 -26 -26 -26 -26 -26 -26 -26
-31 -31 -31 -31 -31 -31 -30 -30 -30 -30 -30 -30 -30 -30 -30 -29 -29 -29 -29 -29 -29 -29 -29 -29 -28 -28 -28 -28 -28 -28 -28 -27 -27 -27 -27 -27 -27 -26 -26 -26 -26 -26 -26 -26
-30 -30 -30 -30 -30 -30 -30 -30 -30 -30 -30 -30 -30 -30 -30 -29 -29 -29 -29 -29 -29 -29 -29 -29 -28 -28 -28 -28 -28 -27 -27 -27 -27 -27 -28 -27 -27 -27 -27 -27 -27 -27 -27 -27

GFSNW_500_temp_192.txt.gz
Temp
-13 -13 -13 -13 -13 -12 -12 -13 -13 -13 -13 -13 -13 -13 -13 -13 -14 -14 -14 -14 -14 -14 -15 -15 -15 -16 -17 -17 -16 -17 -17 -15 -14 -14 -14 -15 -15 -16 -19 -21 -21 -21 -21 -20
-13 -13 -13 -12 -12 -12 -13 -13 -13 -13 -13 -14 -14 -14 -14 -14 -15 -15 -15 -15 -15 -15 -15 -16 -16 -16 -17 -17 -18 -18 -18 -17 -17 -15 -15 -16 -17 -17 -18 -21 -22 -22 -22 -20
-13 -13 -13 -13 -13 -13 -13 -13 -14 -14 -14 -14 -14 -15 -15 -15 -15 -15 -15 -16 -16 -16 -16 -17 -16 -16 -16 -17 -18 -18 -19 -18 -18 -18 -18 -18 -19 -18 -19 -22 -22 -22 -22 -22
-14 -14 -14 -13 -13 -13 -13 -14 -14 -14 -14 -15 -15 -15 -15 -15 -16 -16 -17 -17 -17 -17 -16 -17 -17 -17 -17 -17 -17 -18 -20 -19 -20 -20 -20 -20 -20 -19 -20 -21 -21 -22 -22 -22
-14 -12 -12 -13 -14 -14 -14 -14 -15 -15 -16 -15 -15 -16 -16 -17 -17 -17 -17 -17 -17 -18 -17 -18 -18 -18 -18 -17 -16 -19 -20 -20 -21 -21 -22 -22 -22 -21 -21 -21 -22 -23 -23 -23
-14 -14 -14 -14 -14 -14 -15 -16 -16 -16 -16 -16 -17 -17 -17 -17 -17 -18 -18 -19 -19 -19 -19 -19 -19 -18 -18 -18 -19 -20 -21 -22 -23 -23 -23 -24 -23 -22 -24 -23 -23 -24 -24 -23
-14 -15 -15 -16 -16 -17 -16 -16 -16 -17 -17 -17 -17 -17 -17 -18 -19 -19 -20 -20 -20 -20 -20 -20 -21 -21 -21 -20 -21 -22 -22 -23 -24 -24 -25 -25 -22 -23 -23 -24 -23 -24 -24 -24
-17 -17 -17 -17 -17 -17 -17 -17 -18 -18 -17 -18 -18 -18 -19 -19 -20 -21 -21 -22 -22 -22 -23 -23 -23 -22 -23 -22 -22 -23 -24 -25 -25 -25 -25 -24 -22 -24 -25 -24 -23 -24 -24 -24
-17 -17 -18 -18 -19 -19 -19 -18 -18 -18 -19 -19 -20 -20 -21 -21 -22 -22 -23 -23 -23 -24 -24 -24 -24 -24 -24 -24 -24 -25 -25 -25 -26 -26 -26 -25 -24 -24 -24 -24 -24 -24 -24 -24
-19 -19 -19 -19 -19 -19 -19 -20 -20 -21 -21 -21 -22 -22 -23 -23 -23 -23 -23 -24 -24 -24 -24 -24 -24 -24 -25 -26 -26 -25 -26 -26 -26 -26 -26 -25 -25 -25 -24 -24 -24 -24 -24 -25
-20 -21 -21 -21 -21 -21 -21 -21 -22 -23 -23 -23 -23 -24 -23 -24 -24 -24 -24 -24 -24 -24 -25 -25 -27 -27 -26 -26 -26 -26 -26 -26 -26 -26 -26 -25 -25 -25 -25 -25 -24 -24 -24 -25
-22 -22 -23 -23 -23 -23 -23 -23 -23 -24 -23 -24 -24 -24 -24 -24 -24 -24 -24 -24 -25 -25 -26 -27 -28 -27 -27 -27 -26 -26 -26 -26 -26 -26 -25 -25 -24 -25 -25 -25 -25 -25 -25 -25
-23 -23 -23 -24 -24 -23 -23 -23 -24 -24 -24 -24 -24 -25 -25 -25 -25 -25 -25 -26 -27 -28 -28 -28 -28 -28 -28 -28 -27 -27 -27 -27 -26 -26 -26 -26 -25 -25 -25 -25 -25 -25 -25 -25
-24 -24 -24 -24 -24 -24 -24 -24 -24 -24 -25 -25 -25 -25 -25 -25 -25 -26 -27 -28 -29 -28 -28 -29 -28 -28 -28 -28 -28 -27 -27 -27 -27 -26 -26 -26 -26 -26 -26 -26 -26 -26 -26 -25
-24 -24 -24 -24 -25 -25 -25 -25 -25 -25 -25 -25 -25 -25 -26 -26 -27 -28 -28 -29 -29 -29 -29 -29 -29 -29 -29 -28 -28 -27 -27 -27 -27 -27 -26 -26 -26 -26 -26 -26 -26 -26 -26 -25
-25 -25 -25 -25 -25 -26 -26 -26 -26 -25 -25 -25 -26 -27 -28 -28 -29 -29 -29 -29 -29 -29 -29 -29 -28 -29 -29 -28 -27 -27 -28 -28 -27 -27 -27 -27 -26 -26 -27 -27 -27 -26 -26 -26
-25 -26 -26 -26 -26 -26 -26 -26 -26 -26 -27 -28 -28 -29 -30 -30 -30 -29 -29 -29 -29 -29 -29 -29 -29 -29 -29 -27 -27 -29 -29 -28 -28 -27 -27 -27 -27 -27 -26 -26 -26 -26 -26 -26
-27 -27 -27 -28 -28 -28 -28 -28 -29 -29 -30 -30 -30 -30 -31 -30 -30 -30 -30 -29 -29 -29 -29 -29 -29 -29 -28 -27 -28 -29 -28 -28 -27 -27 -27 -27 -27 -27 -27 -27 -27 -26 -26 -26
-28 -28 -29 -30 -30 -30 -30 -30 -31 -31 -31 -31 -31 -31 -31 -31 -30 -30 -30 -29 -29 -29 -29 -29 -28 -28 -28 -29 -28 -28 -28 -28 -28 -28 -28 -27 -27 -27 -27 -27 -27 -27 -26 -26
-30 -31 -31 -31 -31 -31 -31 -31 -31 -31 -31 -31 -31 -31 -31 -31 -31 -30 -30 -30 -30 -29 -29 -29 -29 -28 -28 -28 -28 -28 -28 -28 -28 -28 -28 -28 -28 -28 -28 -27 -27 -27 -26 -26
-31 -31 -31 -31 -31 -31 -31 -31 -32 -31 -31 -32 -32 -32 -32 -31 -31 -31 -31 -30 -30 -30 -30 -29 -28 -28 -28 -28 -28 -28 -27 -28 -28 -28 -28 -28 -28 -28 -27 -27 -27 -27 -27 -26
-31 -31 -31 -31 -32 -32 -32 -32 -32 -32 -32 -32 -32 -32 -32 -32 -31 -31 -31 -30 -30 -30 -30 -29 -29 -29 -29 -28 -28 -28 -28 -28 -28 -28 -28 -28 -27 -27 -27 -27 -27 -27 -26 -26
-32 -32 -32 -31 -32 -32 -32 -31 -31 -31 -31 -31 -32 -32 -32 -32 -31 -31 -31 -31 -30 -30 -30 -29 -29 -29 -29 -29 -29 -28 -28 -28 -28 -28 -28 -28 -28 -28 -28 -27 -27 -27 -27 -26
-32 -31 -32 -32 -31 -31 -31 -32 -31 -31 -31 -31 -31 -31 -31 -31 -31 -31 -31 -31 -30 -30 -30 -29 -29 -29 -29 -29 -28 -29 -28 -28 -28 -28 -28 -28 -28 -28 -27 -27 -27 -27 -27 -26
-32 -32 -31 -31 -31 -32 -31 -31 -31 -30 -30 -30 -30 -30 -30 -30 -30 -30 -30 -30 -30 -30 -30 -29 -29 -29 -29 -29 -29 -29 -29 -28 -28 -28 -28 -28 -28 -28 -28 -27 -27 -27 -27 -27
-32 -31 -31 -31 -31 -31 -30 -30 -30 -31 -30 -30 -30 -30 -30 -30 -30 -30 -30 -30 -30 -29 -29 -30 -30 -29 -29 -29 -29 -28 -29 -29 -28 -28 -28 -28 -28 -28 -28 -28 -28 -27 -27 -27
-31 -31 -31 -31 -31 -30 -30 -30 -30 -30 -30 -30 -30 -30 -30 -30 -30 -30 -29 -30 -30 -30 -30 -30 -29 -29 -29 -29 -29 -29 -29 -28 -28 -28 -28 -28 -27 -27 -27 -27 -28 -28 -28 -28

GFSNW_500_temp_195.txt.gz
Temp
-13 -13 -12 -13 -13 -13 -13 -13 -13 -13 -13 -13 -13 -12 -12 -13 -13 -13 -14 -14 -14 -14 -14 -14 -14 -14 -14 -15 -15 -15 -16 -15 -13 -14 -15 -16 -15 -16 -17 -19 -19 -20 -21 -19
-14 -14 -13 -13 -13 -13 -13 -13 -14 -13 -13 -14 -13 -12 -13 -13 -14 -14 -14 -14 -15 -15 -15 -15 -14 -15 -15 -16 -16 -16 -16 -17 -15 -14 -15 -16 -15 -16 -17 -19 -21 -20 -21 -20
-14 -14 -14 -14 -13 -14 -14 -14 -14 -14 -14 -13 -13 -13 -14 -14 -14 -14 -15 -15 -15 -15 -15 -15 -15 -16 -16 -17 -17 -17 -17 -17 -17 -16 -16 -17 -16 -16 -19 -21 -21 -22 -22 -22
-15 -14 -14 -14 -14 -14 -14 -14 -14 -13 -14 -13 -13 -14 -14 -14 -14 -15 -16 -15 -16 -16 -16 -16 -16 -16 -16 -17 -17 -18 -18 -18 -19 -18 -18 -18 -18 -16 -20 -20 -20 -22 -22 -23
-16 -15 -15 -15 -15 -15 -15 -14 -14 -14 -14 -14 -14 -14 -14 -15 -15 -16 -16 -16 -16 -16 -17 -17 -17 -17 -17 -17 -17 -18 -18 -18 -20 -17 -20 -20 -19 -18 -21 -22 -22 -22 -24 -23
-16 -16 -16 -15 -15 -14 -15 -14 -13 -13 -14 -14 -14 -15 -15 -16 -16 -16 -16 -17 -17 -18 -18 -18 -18 -18 -18 -18 -18 -18 -19 -20 -21 -19 -21 -22 -20 -21 -23 -24 -23 -24 -24 -24
-16 -16 -16 -15 -15 -16 -15 -14 -14 -14 -15 -15 -16 -16 -16 -16 -16 -17 -17 -18 -18 -18 -19 -19 -19 -19 -19 -18 -19 -20 -20 -22 -23 -23 -23 -24 -22 -24 -24 -24 -24 -24 -24 -24
-16 -16 -16 -16 -16 -15 -15 -15 -15 -16 -16 -17 -16 -16 -16 -17 -18 -18 -18 -19 -19 -19 -20 -21 -21 -21 -21 -20 -20 -21 -22 -23 -24 -24 -25 -25 -24 -25 -24 -25 -24 -25 -25 -25
-16 -16 -16 -15 -15 -15 -16 -17 -17 -17 -17 -17 -17 -17 -18 -18 -19 -19 -19 -20 -21 -22 -23 -23 -23 -22 -22 -22 -20 -21 -22 -23 -24 -25 -26 -25 -25 -25 -25 -25 -24 -24 -25 -25
-16 -17 -18 -18 -18 -18 -17 -17 -17 -18 -17 -17 -18 -19 -19 -19 -20 -20 -21 -23 -23 -23 -24 -24 -24 -24 -24 -23 -22 -22 -24 -25 -26 -26 -26 -25 -26 -25 -25 -26 -25 -25 -25 -24
-18 -18 -18 -18 -18 -18 -18 -19 -19 -19 -19 -19 -19 -19 -20 -21 -22 -23 -24 -24 -23 -24 -24 -24 -24 -24 -24 -24 -24 -25 -27 -27 -27 -26 -26 -26 -26 -26 -26 -25 -25 -25 -25 -25
-18 -19 -20 -20 -20 -20 -20 -20 -21 -21 -21 -21 -21 -22 -22 -24 -24 -24 -24 -24 -24 -24 -24 -24 -24 -24 -24 -25 -26 -27 -28 -27 -27 -27 -27 -27 -26 -26 -25 -25 -25 -25 -25 -25
-20 -21 -21 -21 -21 -21 -21 -21 -21 -22 -22 -22 -23 -23 -24 -24 -24 -24 -24 -25 -24 -24 -24 -24 -25 -25 -26 -27 -27 -28 -28 -28 -28 -27 -27 -27 -27 -27 -25 -25 -26 -25 -25 -25
-22 -22 -22 -22 -22 -22 -22 -22 -23 -23 -24 -24 -24 -24 -24 -24 -24 -25 -25 -25 -25 -25 -25 -25 -26 -28 -28 -28 -28 -28 -28 -28 -28 -28 -28 -28 -27 -27 -27 -26 -26 -26 -26 -25
-23 -23 -23 -23 -23 -23 -24 -24 -24 -24 -24 -24 -24 -24 -25 -25 -25 -25 -25 -25 -25 -26 -26 -27 -28 -28 -28 -28 -28 -27 -28 -29 -29 -28 -28 -28 -27 -27 -27 -27 -26 -26 -26 -26
-24 -24 -24 -24 -24 -24 -24 -24 -24 -24 -25 -25 -25 -25 -25 -25 -25 -25 -26 -26 -27 -28 -28 -28 -28 -28 -29 -28 -27 -27 -29 -29 -29 -28 -28 -28 -27 -27 -27 -27 -27 -26 -26 -26
-24 -24 -24 -24 -24 -24 -25 -25 -25 -25 -25 -26 -26 -26 -26 -27 -27 -27 -28 -29 -29 -29 -29 -28 -29 -29 -29 -27 -28 -29 -29 -29 -28 -28 -27 -27 -27 -27 -27 -27 -27 -27 -27 -27
-24 -25 -25 -25 -25 -25 -25 -25 -25 -26 -26 -26 -27 -28 -28 -28 -29 -29 -30 -29 -29 -29 -29 -29 -29 -29 -28 -28 -29 -29 -28 -28 -28 -28 -27 -27 -27 -27 -27 -28 -27 -27 -27 -27
-25 -25 -25 -26 -26 -26 -26 -26 -27 -27 -27 -28 -28 -29 -30 -30 -30 -30 -30 -30 -30 -29 -29 -29 -29 -28 -28 -29 -29 -29 -29 -28 -28 -28 -28 -28 -28 -28 -28 -28 -27 -27 -27 -27
-26 -26 -27 -27 -27 -27 -28 -28 -28 -29 -29 -30 -30 -30 -31 -31 -31 -31 -31 -30 -30 -30 -30 -30 -29 -29 -29 -28 -28 -28 -29 -29 -28 -28 -28 -28 -28 -28 -28 -28 -28 -28 -28 -27
-28 -28 -29 -29 -30 -30 -30 -30 -30 -30 -31 -31 -31 -31 -32 -32 -32 -32 -31 -31 -31 -30 -30 -30 -29 -29 -29 -28 -28 -28 -29 -28 -28 -28 -28 -28 -28 -28 -28 -28 -27 -27 -27 -27
-30 -31 -31 -31 -31 -31 -31 -31 -31 -31 -31 -32 -32 -32 -32 -32 -32 -33 -32 -31 -31 -31 -31 -30 -29 -29 -29 -29 -29 -28 -29 -28 -28 -28 -28 -28 -28 -28 -28 -28 -28 -27 -27 -27
-31 -31 -31 -32 -31 -31 -31 -31 -31 -31 -31 -32 -32 -32 -32 -32 -32 -31 -31 -31 -31 -31 -30 -30 -30 -29 -29 -29 -29 -29 -29 -28 -28 -28 -28 -28 -28 -28 -28 -28 -28 -28 -28 -27
-31 -32 -32 -32 -31 -31 -31 -31 -31 -31 -31 -31 -31 -31 -31 -31 -31 -31 -31 -31 -31 -31 -30 -30 -30 -30 -29 -29 -29 -29 -29 -29 -29 -29 -29 -29 -28 -28 -28 -28 -28 -28 -27 -27
-32 -32 -32 -31 -31 -31 -31 -31 -31 -31 -31 -31 -31 -30 -31 -31 -31 -31 -31 -31 -31 -31 -30 -30 -30 -29 -29 -29 -29 -29 -29 -29 -29 -29 -29 -29 -29 -28 -28 -28 -28 -28 -28 -27
-32 -32 -31 -31 -31 -31 -30 -30 -31 -31 -31 -31 -31 -30 -30 -30 -30 -30 -30 -30 -30 -30 -30 -30 -30 -30 -30 -29 -29 -29 -29 -29 -29 -29 -29 -29 -28 -28 -28 -28 -28 -28 -28 -28
-31 -31 -31 -31 -30 -30 -30 -30 -30 -30 -30 -30 -31 -31 -31 -31 -31 -30 -30 -30 -30 -30 -30 -30 -30 -30 -29 -29 -29 -29 -29 -29 -29 -29 -29 -29 -29 -28 -28 -28 -28 -28 -28 -28

GFSNW_500_temp_198.txt.gz
Temp
-13 -13 -13 -13 -13 -13 -13 -13 -13 -12 -13 -13 -13 -12 -12 -12 -12 -12 -13 -13 -13 -13 -13 -14 -14 -14 -15 -15 -14 -14 -15 -14 -13 -13 -14 -15 -16 -17 -17 -18 -17 -19 -19 -14
-13 -14 -13 -14 -14 -14 -14 -13 -13 -13 -13 -13 -13 -12 -12 -12 -12 -12 -13 -13 -13 -13 -13 -14 -14 -15 -15 -15 -15 -15 -15 -16 -14 -14 -15 -16 -16 -17 -17 -18 -18 -18 -19 -16
-13 -14 -14 -13 -14 -14 -14 -14 -14 -14 -13 -13 -14 -13 -12 -12 -13 -13 -13 -13 -13 -14 -14 -14 -15 -15 -16 -15 -16 -16 -16 -16 -16 -15 -16 -17 -16 -17 -18 -19 -19 -19 -18 -21
-14 -14 -14 -14 -14 -14 -14 -15 -14 -14 -14 -13 -14 -14 -14 -14 -14 -14 -14 -13 -13 -14 -14 -15 -15 -16 -16 -16 -16 -17 -17 -17 -17 -17 -18 -18 -16 -17 -18 -18 -18 -20 -19 -21
-15 -15 -15 -14 -14 -14 -15 -15 -15 -15 -14 -14 -14 -14 -14 -14 -14 -14 -14 -14 -14 -15 -15 -16 -16 -16 -16 -16 -17 -18 -18 -18 -18 -16 -19 -19 -17 -17 -18 -19 -19 -20 -22 -22
-15 -16 -15 -15 -15 -16 -16 -16 -15 -15 -15 -15 -14 -14 -14 -15 -15 -15 -14 -14 -15 -15 -16 -16 -16 -17 -17 -17 -18 -18 -18 -19 -19 -16 -20 -19 -17 -18 -20 -21 -21 -22 -24 -24
-16 -16 -16 -16 -16 -16 -16 -16 -16 -16 -15 -15 -14 -15 -15 -15 -15 -15 -15 -15 -16 -16 -17 -17 -17 -17 -18 -18 -18 -19 -19 -20 -21 -19 -21 -19 -18 -19 -21 -23 -23 -23 -25 -25
-16 -16 -16 -17 -16 -16 -16 -15 -15 -16 -16 -16 -16 -16 -16 -16 -15 -15 -17 -17 -17 -17 -17 -18 -18 -18 -18 -19 -19 -20 -21 -22 -22 -22 -21 -21 -18 -21 -24 -25 -25 -25 -25 -25
-16 -16 -17 -16 -16 -16 -16 -16 -16 -16 -17 -16 -16 -17 -15 -16 -17 -18 -17 -17 -18 -18 -19 -19 -19 -19 -19 -19 -19 -20 -22 -23 -23 -23 -24 -23 -22 -23 -26 -26 -25 -26 -25 -25
-16 -16 -16 -17 -16 -16 -17 -17 -16 -17 -16 -16 -16 -17 -17 -18 -18 -18 -18 -19 -19 -19 -20 -20 -20 -20 -21 -21 -21 -21 -23 -23 -23 -23 -24 -24 -24 -26 -26 -27 -26 -26 -25 -25
-16 -16 -17 -16 -17 -17 -17 -17 -16 -16 -16 -17 -18 -18 -18 -18 -18 -19 -19 -20 -20 -20 -21 -22 -23 -23 -23 -23 -22 -23 -24 -24 -24 -24 -26 -26 -26 -27 -27 -27 -26 -26 -25 -25
-17 -17 -17 -17 -18 -17 -17 -17 -18 -19 -19 -18 -18 -19 -19 -20 -20 -20 -20 -20 -21 -22 -24 -24 -24 -24 -24 -24 -24 -24 -24 -24 -25 -26 -26 -27 -27 -27 -27 -27 -26 -26 -26 -26
-17 -17 -17 -18 -17 -18 -19 -19 -19 -19 -19 -19 -20 -20 -20 -21 -21 -21 -22 -23 -24 -24 -24 -24 -24 -25 -24 -24 -24 -24 -24 -26 -27 -28 -27 -28 -28 -28 -28 -27 -27 -27 -26 -25
-19 -19 -19 -19 -19 -19 -19 -19 -19 -20 -20 -21 -21 -21 -22 -22 -23 -24 -24 -24 -24 -24 -24 -24 -24 -25 -25 -25 -25 -24 -26 -27 -28 -28 -27 -29 -29 -28 -28 -27 -28 -27 -26 -26
-20 -20 -20 -20 -21 -21 -21 -21 -21 -21 -22 -22 -22 -23 -24 -24 -24 -24 -24 -24 -24 -25 -25 -25 -25 -25 -25 -26 -26 -26 -28 -28 -29 -28 -28 -29 -28 -28 -28 -27 -28 -27 -27 -27
-22 -22 -22 -22 -22 -22 -22 -22 -23 -23 -23 -24 -24 -24 -24 -24 -24 -25 -25 -25 -25 -25 -25 -25 -26 -27 -28 -27 -27 -27 -29 -29 -29 -27 -27 -27 -27 -27 -27 -27 -27 -27 -27 -27
-22 -22 -23 -23 -23 -23 -24 -24 -23 -24 -24 -24 -24 -24 -24 -25 -25 -25 -25 -25 -26 -26 -26 -27 -28 -28 -28 -28 -28 -30 -29 -28 -28 -27 -27 -27 -27 -27 -28 -28 -27 -28 -28 -28
-24 -24 -24 -24 -24 -24 -24 -24 -24 -24 -24 -25 -25 -25 -25 -25 -25 -26 -26 -27 -28 -28 -28 -29 -29 -29 -29 -28 -30 -29 -29 -29 -28 -29 -28 -28 -28 -29 -28 -28 -28 -28 -28 -28
-24 -24 -24 -25 -24 -24 -24 -25 -25 -25 -25 -26 -26 -26 -26 -27 -27 -28 -29 -30 -30 -30 -30 -30 -29 -29 -29 -29 -29 -29 -29 -29 -28 -28 -28 -28 -28 -28 -28 -28 -28 -28 -28 -28
-25 -25 -25 -25 -25 -25 -25 -25 -25 -25 -26 -26 -27 -28 -28 -28 -29 -30 -31 -31 -30 -30 -30 -30 -30 -29 -29 -29 -29 -29 -28 -28 -28 -28 -28 -28 -28 -28 -28 -28 -28 -28 -28 -28
-25 -25 -25 -26 -26 -26 -25 -26 -26 -26 -27 -28 -28 -28 -30 -31 -32 -32 -32 -32 -31 -30 -30 -30 -30 -29 -29 -29 -28 -29 -29 -29 -29 -28 -28 -28 -28 -28 -28 -28 -28 -28 -28 -28
-27 -26 -27 -27 -27 -26 -26 -27 -28 -28 -29 -29 -30 -31 -31 -32 -32 -32 -32 -32 -32 -31 -31 -30 -30 -30 -29 -29 -29 -29 -29 -29 -29 -29 -29 -29 -29 -29 -28 -28 -28 -28 -28 -28
-28 -28 -29 -29 -28 -28 -28 -29 -30 -30 -31 -31 -31 -31 -31 -31 -31 -31 -31 -31 -31 -31 -31 -30 -30 -30 -30 -29 -29 -29 -29 -29 -29 -29 -29 -29 -29 -29 -29 -29 -29 -28 -28 -28
-30 -30 -31 -30 -30 -31 -31 -31 -30 -31 -31 -31 -31 -31 -31 -31 -31 -31 -31 -31 -31 -31 -31 -30 -30 -30 -30 -30 -29 -29 -29 -29 -29 -29 -29 -29 -29 -29 -29 -29 -29 -28 -28 -28
-31 -32 -31 -31 -31 -31 -31 -30 -31 -31 -31 -31 -31 -31 -31 -31 -31 -31 -31 -31 -31 -31 -31 -31 -30 -30 -30 -30 -30 -30 -29 -29 -29 -29 -29 -29 -29 -29 -29 -29 -29 -28 -28 -28
-32 -32 -31 -31 -31 -31 -31 -31 -31 -31 -30 -30 -31 -30 -30 -31 -30 -31 -31 -31 -30 -30 -30 -31 -30 -30 -30 -30 -30 -30 -29 -29 -29 -29 -29 -29 -29 -29 -29 -29 -29 -28 -28 -28
-31 -31 -31 -31 -31 -31 -31 -30 -31 -31 -31 -31 -31 -31 -31 -31 -31 -31 -31 -31 -31 -30 -30 -30 -30 -30 -30 -30 -30 -29 -29 -29 -29 -29 -29 -29 -29 -29 -29 -29 -29 -29 -29 -28

GFSNW_500_temp_201.txt.gz
Temp
-12 -13 -13 -13 -13 -13 -13 -13 -13 -12 -13 -13 -12 -12 -12 -13 -12 -12 -13 -13 -13 -13 -13 -13 -13 -13 -14 -13 -13 -13 -14 -14 -13 -14 -14 -14 -15 -15 -17 -17 -17 -17 -18 -13
-12 -12 -14 -14 -14 -13 -13 -13 -13 -14 -13 -13 -13 -13 -13 -13 -13 -13 -13 -13 -13 -13 -14 -14 -13 -14 -14 -14 -14 -14 -14 -14 -14 -14 -14 -14 -14 -15 -16 -18 -18 -18 -19 -15
-12 -13 -13 -14 -14 -13 -13 -13 -14 -14 -13 -13 -13 -13 -13 -13 -13 -13 -13 -13 -13 -14 -14 -14 -14 -14 -14 -14 -14 -15 -15 -15 -15 -15 -15 -16 -16 -16 -18 -19 -18 -19 -18 -19
-13 -13 -14 -14 -14 -14 -14 -14 -14 -14 -14 -13 -13 -14 -14 -14 -14 -14 -14 -13 -14 -14 -14 -14 -14 -14 -14 -15 -15 -15 -16 -16 -16 -16 -16 -16 -16 -16 -17 -18 -19 -20 -18 -19
-15 -15 -15 -15 -15 -15 -15 -15 -14 -14 -14 -14 -14 -14 -13 -14 -15 -15 -14 -14 -14 -14 -14 -15 -15 -15 -15 -15 -16 -16 -16 -16 -17 -17 -17 -17 -16 -17 -18 -19 -18 -19 -20 -18
-15 -15 -15 -16 -15 -16 -16 -15 -15 -15 -15 -15 -15 -14 -14 -15 -15 -14 -14 -15 -15 -15 -15 -15 -15 -15 -15 -16 -17 -17 -17 -17 -18 -17 -19 -18 -16 -18 -18 -19 -19 -20 -20 -20
-15 -16 -16 -16 -15 -16 -16 -16 -16 -16 -16 -16 -15 -15 -15 -16 -16 -15 -15 -15 -15 -16 -16 -15 -15 -16 -16 -17 -17 -17 -17 -18 -19 -19 -19 -18 -18 -18 -18 -19 -18 -19 -19 -21
-15 -16 -16 -16 -16 -16 -17 -16 -16 -16 -16 -16 -16 -15 -15 -16 -15 -16 -16 -16 -16 -16 -16 -16 -16 -17 -17 -17 -17 -18 -19 -19 -20 -20 -20 -18 -17 -19 -20 -21 -19 -19 -20 -22
-14 -15 -16 -16 -16 -16 -17 -17 -17 -17 -16 -16 -16 -16 -16 -16 -17 -16 -16 -17 -17 -17 -17 -17 -18 -18 -18 -18 -18 -19 -20 -21 -22 -22 -23 -20 -19 -20 -20 -21 -19 -21 -22 -23
-14 -14 -15 -16 -16 -17 -18 -18 -18 -17 -16 -16 -16 -17 -16 -17 -17 -17 -17 -17 -17 -18 -18 -18 -18 -18 -19 -19 -20 -20 -21 -23 -23 -24 -24 -22 -21 -21 -22 -22 -22 -23 -25 -26
-15 -16 -15 -15 -16 -17 -18 -18 -17 -17 -17 -17 -17 -17 -17 -18 -17 -17 -17 -18 -18 -19 -18 -19 -20 -20 -20 -20 -21 -21 -23 -24 -24 -24 -23 -22 -22 -22 -23 -23 -25 -26 -27 -27
-16 -15 -17 -16 -15 -16 -17 -18 -17 -17 -18 -17 -17 -17 -17 -17 -17 -19 -19 -19 -19 -19 -20 -21 -21 -21 -21 -21 -22 -23 -24 -23 -24 -24 -23 -24 -24 -24 -25 -26 -27 -27 -27 -27
-19 -17 -17 -17 -17 -16 -17 -18 -17 -17 -18 -18 -17 -17 -17 -18 -20 -19 -20 -20 -21 -21 -21 -21 -21 -22 -23 -24 -23 -24 -24 -24 -24 -24 -24 -24 -25 -26 -27 -27 -28 -27 -28 -27
-19 -18 -18 -18 -18 -19 -18 -19 -19 -18 -18 -18 -18 -19 -20 -20 -20 -21 -22 -22 -22 -21 -22 -23 -24 -24 -24 -24 -24 -24 -24 -25 -25 -24 -24 -26 -26 -28 -28 -28 -27 -27 -28 -27
-19 -19 -19 -18 -19 -20 -20 -20 -20 -18 -18 -19 -20 -20 -20 -21 -22 -22 -22 -22 -23 -24 -24 -24 -24 -24 -24 -24 -24 -24 -26 -26 -25 -24 -27 -27 -27 -27 -28 -27 -27 -28 -28 -28
-21 -21 -21 -21 -21 -20 -21 -20 -19 -19 -21 -20 -20 -21 -21 -22 -22 -22 -23 -24 -24 -24 -24 -24 -24 -24 -25 -24 -24 -25 -28 -27 -27 -27 -28 -28 -28 -28 -28 -28 -28 -28 -28 -28
-21 -21 -21 -21 -21 -21 -21 -21 -21 -21 -21 -21 -21 -21 -22 -23 -24 -24 -24 -24 -24 -24 -24 -24 -24 -25 -25 -24 -25 -28 -29 -30 -29 -28 -28 -28 -28 -28 -29 -28 -28 -27 -28 -28
-22 -22 -22 -22 -22 -22 -22 -22 -22 -22 -22 -22 -23 -23 -24 -24 -24 -24 -24 -24 -25 -24 -24 -25 -25 -25 -26 -26 -29 -29 -29 -29 -29 -28 -29 -28 -28 -28 -28 -28 -28 -28 -28 -27
-23 -23 -23 -23 -23 -23 -23 -23 -23 -24 -24 -24 -24 -24 -24 -24 -24 -25 -25 -25 -25 -25 -26 -27 -27 -28 -28 -30 -29 -29 -29 -29 -28 -29 -29 -28 -28 -28 -28 -28 -28 -28 -28 -28
-24 -24 -24 -24 -24 -24 -24 -24 -24 -24 -24 -24 -24 -24 -24 -25 -25 -25 -26 -27 -28 -28 -28 -28 -29 -30 -30 -30 -29 -29 -29 -29 -28 -29 -28 -28 -28 -28 -28 -28 -28 -28 -28 -28
-24 -24 -24 -24 -24 -24 -24 -24 -24 -25 -25 -25 -25 -26 -26 -26 -27 -28 -29 -29 -30 -30 -31 -30 -30 -30 -30 -30 -29 -29 -29 -29 -28 -28 -29 -28 -28 -28 -28 -28 -29 -28 -28 -28
-25 -25 -25 -25 -25 -25 -25 -25 -25 -25 -26 -26 -26 -26 -27 -28 -30 -30 -31 -31 -31 -31 -31 -31 -31 -31 -30 -30 -30 -30 -29 -29 -29 -29 -29 -29 -29 -29 -29 -29 -29 -29 -29 -28
-26 -26 -26 -26 -25 -26 -26 -26 -26 -27 -28 -28 -30 -30 -30 -31 -30 -31 -31 -31 -31 -31 -31 -31 -31 -30 -30 -30 -30 -30 -29 -29 -29 -29 -29 -29 -29 -29 -29 -29 -29 -29 -29 -29
-27 -26 -26 -26 -26 -27 -28 -28 -28 -29 -30 -30 -30 -30 -30 -30 -30 -30 -30 -30 -31 -31 -31 -31 -31 -30 -30 -30 -30 -30 -30 -30 -29 -30 -30 -29 -29 -29 -29 -29 -29 -29 -29 -29
-28 -27 -28 -28 -28 -29 -29 -30 -30 -30 -30 -30 -30 -30 -30 -30 -30 -30 -30 -30 -30 -31 -31 -31 -31 -31 -30 -30 -30 -30 -30 -30 -30 -29 -29 -29 -29 -29 -29 -29 -29 -29 -29 -29
-29 -29 -30 -30 -30 -30 -30 -31 -30 -30 -30 -30 -30 -30 -30 -30 -30 -30 -30 -30 -30 -30 -30 -30 -30 -31 -30 -30 -30 -30 -30 -30 -30 -30 -29 -29 -29 -29 -29 -29 -29 -29 -29 -29
-31 -30 -30 -30 -30 -30 -30 -30 -30 -30 -30 -30 -30 -30 -30 -30 -30 -30 -31 -31 -31 -30 -30 -30 -30 -30 -30 -30 -30 -30 -30 -30 -30 -30 -29 -29 -29 -29 -29 -29 -29 -29 -29 -29

GFSNW_500_temp_204.txt.gz
Temp
-13 -13 -13 -13 -13 -14 -14 -14 -13 -13 -13 -13 -13 -11 -12 -12 -12 -12 -12 -13 -13 -13 -13 -13 -13 -13 -13 -13 -13 -13 -13 -14 -14 -14 -14 -14 -14 -14 -15 -15 -15 -16 -15 -11
-13 -13 -13 -14 -13 -14 -14 -14 -13 -13 -13 -13 -12 -12 -12 -13 -12 -12 -13 -12 -13 -13 -13 -13 -13 -13 -13 -13 -14 -14 -14 -14 -14 -14 -14 -14 -14 -15 -15 -16 -15 -16 -17 -14
-13 -13 -13 -13 -13 -14 -14 -14 -14 -13 -13 -12 -12 -13 -13 -13 -13 -13 -13 -13 -13 -13 -13 -13 -14 -14 -14 -14 -14 -14 -14 -15 -14 -14 -16 -15 -15 -15 -15 -16 -16 -16 -16 -15
-13 -14 -13 -14 -14 -14 -14 -15 -14 -13 -13 -13 -12 -13 -13 -13 -13 -14 -13 -13 -13 -14 -14 -14 -14 -14 -14 -14 -14 -15 -14 -14 -15 -14 -15 -15 -16 -16 -17 -17 -17 -19 -18 -18
-14 -14 -14 -14 -13 -14 -15 -15 -15 -14 -13 -14 -13 -13 -13 -13 -14 -14 -14 -14 -14 -14 -14 -15 -15 -15 -15 -15 -15 -15 -15 -15 -15 -15 -15 -15 -15 -16 -16 -17 -18 -19 -20 -18
-14 -14 -14 -14 -13 -14 -15 -15 -15 -15 -14 -14 -14 -13 -13 -13 -14 -14 -14 -14 -14 -15 -15 -15 -15 -15 -15 -15 -15 -15 -16 -16 -16 -16 -16 -16 -16 -16 -17 -18 -18 -20 -20 -21
-15 -15 -15 -14 -14 -14 -15 -15 -15 -15 -14 -14 -14 -14 -14 -14 -15 -15 -15 -15 -15 -15 -15 -16 -16 -15 -16 -16 -16 -16 -16 -17 -18 -18 -17 -17 -16 -17 -18 -19 -20 -20 -20 -20
-15 -15 -15 -15 -15 -15 -15 -16 -16 -15 -15 -15 -15 -15 -15 -15 -15 -15 -16 -16 -16 -16 -16 -16 -16 -16 -16 -16 -16 -16 -17 -18 -18 -18 -18 -17 -18 -18 -19 -19 -19 -19 -20 -20
-15 -15 -16 -16 -16 -15 -16 -16 -16 -16 -16 -16 -16 -16 -16 -16 -16 -16 -16 -16 -16 -16 -16 -16 -16 -17 -16 -16 -16 -17 -18 -19 -19 -19 -20 -19 -19 -19 -20 -21 -19 -19 -19 -20
-15 -15 -16 -16 -16 -16 -16 -16 -16 -16 -16 -16 -16 -16 -16 -16 -17 -17 -16 -16 -17 -17 -16 -17 -17 -17 -17 -17 -17 -18 -18 -19 -20 -20 -20 -19 -20 -20 -21 -21 -21 -21 -21 -21
-16 -15 -15 -15 -16 -16 -17 -16 -15 -16 -16 -16 -16 -16 -16 -17 -17 -18 -17 -17 -17 -17 -17 -17 -17 -17 -18 -19 -19 -19 -20 -21 -21 -21 -21 -21 -20 -21 -21 -21 -21 -21 -22 -22
-19 -17 -16 -15 -15 -16 -17 -18 -16 -17 -17 -17 -17 -17 -18 -17 -18 -18 -17 -17 -17 -17 -17 -17 -18 -19 -19 -20 -20 -21 -21 -21 -22 -22 -23 -22 -23 -23 -22 -22 -21 -22 -24 -25
-21 -20 -18 -17 -16 -16 -17 -17 -18 -18 -18 -18 -18 -18 -18 -18 -18 -17 -17 -17 -17 -17 -18 -19 -19 -20 -21 -21 -22 -21 -22 -22 -24 -25 -23 -23 -23 -23 -23 -23 -24 -25 -25 -26
-25 -23 -21 -19 -18 -19 -17 -18 -17 -18 -19 -19 -19 -19 -19 -18 -18 -18 -18 -17 -18 -19 -20 -20 -21 -22 -22 -22 -22 -22 -23 -24 -24 -23 -23 -23 -23 -24 -25 -25 -26 -27 -27 -27
-25 -26 -24 -23 -20 -20 -20 -20 -19 -19 -19 -20 -19 -19 -18 -18 -18 -18 -19 -20 -20 -20 -21 -22 -22 -22 -22 -22 -23 -23 -24 -24 -24 -23 -24 -23 -24 -25 -26 -27 -28 -28 -27 -27
-25 -25 -25 -24 -23 -23 -21 -22 -21 -20 -21 -20 -20 -19 -19 -19 -19 -20 -20 -21 -21 -22 -23 -22 -22 -23 -23 -23 -23 -24 -24 -24 -24 -24 -24 -24 -26 -27 -28 -28 -28 -28 -28 -27
-23 -24 -24 -23 -23 -22 -23 -22 -21 -21 -21 -20 -20 -20 -20 -20 -21 -21 -22 -22 -22 -22 -22 -23 -24 -25 -24 -23 -23 -24 -24 -24 -25 -26 -27 -27 -28 -28 -28 -28 -28 -28 -28 -28
-23 -24 -24 -23 -22 -22 -23 -22 -21 -21 -21 -21 -20 -21 -21 -22 -22 -23 -22 -22 -23 -24 -25 -25 -24 -24 -24 -23 -25 -24 -25 -26 -27 -28 -29 -28 -28 -28 -28 -28 -28 -28 -28 -28
-23 -23 -23 -23 -23 -22 -22 -22 -23 -22 -22 -21 -21 -22 -22 -22 -22 -23 -24 -25 -25 -24 -24 -24 -24 -24 -24 -25 -25 -26 -27 -28 -29 -29 -29 -28 -28 -28 -28 -28 -28 -28 -28 -28
-23 -23 -23 -22 -22 -22 -22 -22 -22 -22 -22 -22 -22 -23 -23 -24 -24 -24 -24 -24 -24 -24 -24 -24 -25 -25 -25 -26 -27 -29 -30 -29 -29 -29 -29 -28 -28 -28 -28 -28 -28 -28 -28 -28
-23 -23 -23 -23 -23 -23 -23 -23 -23 -24 -24 -24 -24 -25 -24 -24 -24 -24 -24 -25 -25 -25 -26 -27 -28 -28 -29 -29 -30 -30 -30 -29 -29 -29 -29 -29 -28 -28 -28 -28 -28 -28 -28 -28
-24 -24 -24 -24 -24 -24 -24 -24 -24 -24 -24 -24 -24 -24 -24 -24 -25 -25 -25 -26 -28 -29 -30 -30 -30 -30 -30 -30 -30 -30 -30 -29 -29 -29 -29 -29 -29 -29 -29 -29 -29 -29 -29 -29
-24 -24 -24 -24 -24 -24 -24 -24 -24 -25 -24 -24 -24 -25 -25 -26 -27 -28 -29 -30 -30 -30 -30 -30 -30 -30 -30 -30 -30 -30 -30 -30 -29 -29 -29 -29 -29 -29 -29 -29 -29 -29 -29 -29
-25 -25 -25 -25 -25 -25 -25 -26 -25 -25 -25 -26 -27 -28 -29 -30 -30 -30 -30 -30 -30 -30 -31 -31 -30 -30 -30 -30 -31 -30 -30 -30 -30 -29 -29 -29 -29 -29 -29 -29 -29 -29 -29 -29
-26 -26 -26 -27 -26 -26 -26 -26 -27 -28 -29 -30 -30 -30 -30 -30 -30 -30 -30 -30 -30 -30 -30 -30 -30 -30 -30 -30 -30 -30 -30 -30 -30 -30 -30 -30 -29 -29 -30 -29 -29 -29 -29 -29
-27 -28 -27 -28 -28 -28 -29 -30 -30 -30 -30 -30 -30 -30 -30 -30 -30 -30 -30 -30 -30 -30 -30 -30 -30 -30 -30 -30 -30 -30 -30 -30 -30 -30 -30 -30 -30 -30 -29 -30 -29 -29 -29 -29
-28 -29 -29 -29 -29 -30 -29 -30 -30 -30 -30 -29 -29 -29 -29 -29 -29 -30 -30 -30 -30 -30 -30 -30 -30 -31 -30 -30 -30 -30 -30 -30 -30 -30 -30 -30 -30 -30 -30 -30 -29 -29 -29 -29

GFSNW_500_temp_207.txt.gz
Temp
-12 -13 -13 -13 -13 -14 -14 -13 -13 -12 -13 -13 -12 -10 -11 -11 -12 -12 -12 -11 -11 -12 -13 -13 -13 -12 -13 -13 -13 -13 -13 -13 -12 -13 -13 -13 -13 -14 -14 -14 -14 -14 -14 -11
-13 -12 -13 -13 -13 -13 -14 -13 -13 -13 -13 -13 -12 -12 -11 -11 -12 -12 -12 -12 -12 -13 -13 -13 -13 -13 -13 -13 -13 -13 -13 -13 -13 -13 -13 -13 -13 -13 -14 -14 -15 -12 -16 -12
-13 -13 -13 -13 -13 -13 -14 -13 -13 -13 -13 -12 -12 -12 -12 -12 -12 -12 -12 -12 -12 -13 -13 -13 -13 -13 -13 -14 -14 -14 -14 -14 -14 -13 -15 -14 -14 -14 -14 -15 -14 -14 -13 -14
-13 -13 -13 -13 -14 -14 -14 -13 -13 -13 -13 -12 -12 -13 -13 -12 -12 -13 -13 -13 -12 -13 -13 -13 -13 -13 -14 -14 -14 -14 -14 -14 -14 -14 -15 -15 -15 -14 -15 -15 -15 -15 -15 -15
-14 -13 -14 -14 -14 -14 -14 -14 -13 -13 -13 -12 -13 -13 -12 -12 -13 -13 -13 -12 -13 -14 -13 -13 -14 -14 -14 -14 -14 -14 -14 -14 -15 -14 -15 -15 -14 -14 -14 -14 -15 -16 -17 -15
-14 -14 -14 -14 -14 -14 -14 -14 -14 -14 -13 -13 -14 -12 -12 -12 -14 -13 -14 -13 -14 -13 -14 -14 -15 -15 -15 -15 -15 -15 -15 -15 -15 -14 -15 -15 -14 -14 -15 -15 -15 -17 -17 -17
-14 -15 -14 -14 -14 -14 -14 -14 -14 -14 -14 -14 -12 -13 -13 -13 -13 -14 -14 -14 -14 -14 -14 -15 -15 -15 -15 -15 -15 -15 -15 -16 -16 -15 -16 -15 -15 -15 -15 -15 -16 -18 -18 -19
-15 -15 -16 -15 -15 -14 -14 -14 -14 -14 -14 -14 -14 -13 -13 -15 -14 -14 -14 -14 -14 -14 -15 -15 -15 -16 -16 -16 -16 -16 -16 -16 -17 -17 -17 -16 -16 -16 -16 -16 -17 -19 -19 -20
-16 -16 -16 -16 -16 -15 -15 -15 -15 -15 -15 -14 -15 -15 -14 -15 -15 -14 -14 -14 -15 -15 -15 -16 -16 -16 -16 -16 -16 -16 -16 -16 -17 -17 -17 -16 -17 -16 -17 -19 -18 -20 -20 -20
-16 -16 -16 -16 -16 -16 -16 -16 -16 -16 -15 -15 -15 -15 -15 -15 -15 -15 -15 -15 -15 -16 -16 -16 -16 -16 -16 -16 -16 -16 -17 -17 -17 -17 -17 -17 -18 -18 -18 -20 -21 -20 -21 -21
-17 -17 -17 -16 -17 -17 -16 -16 -16 -17 -16 -16 -16 -16 -15 -15 -16 -16 -16 -16 -16 -16 -16 -17 -17 -17 -17 -17 -17 -17 -17 -17 -17 -18 -19 -18 -19 -20 -21 -21 -21 -21 -21 -21
-20 -19 -17 -17 -17 -17 -17 -17 -17 -17 -17 -17 -16 -16 -16 -16 -16 -16 -16 -16 -16 -17 -17 -17 -17 -17 -17 -17 -17 -17 -17 -17 -18 -18 -19 -21 -22 -22 -21 -21 -21 -21 -22 -22
-23 -21 -20 -19 -19 -18 -17 -17 -17 -18 -18 -17 -17 -16 -16 -16 -16 -16 -16 -17 -17 -17 -17 -17 -17 -17 -17 -17 -18 -18 -18 -19 -18 -20 -20 -22 -22 -22 -22 -22 -22 -23 -23 -23
-26 -25 -24 -23 -22 -21 -21 -18 -17 -18 -19 -18 -17 -16 -17 -17 -17 -17 -17 -17 -18 -18 -18 -18 -18 -18 -18 -18 -19 -19 -20 -20 -21 -21 -22 -22 -22 -22 -23 -23 -23 -24 -24 -24
-27 -27 -27 -27 -26 -26 -24 -20 -19 -19 -19 -20 -19 -18 -18 -18 -18 -18 -18 -18 -18 -19 -18 -19 -18 -19 -20 -20 -20 -20 -22 -22 -22 -21 -22 -23 -23 -23 -23 -23 -24 -25 -25 -27
-24 -26 -26 -27 -27 -28 -26 -24 -21 -21 -21 -22 -22 -21 -21 -20 -20 -19 -20 -19 -19 -19 -19 -19 -20 -21 -21 -21 -21 -22 -23 -23 -23 -22 -23 -23 -23 -23 -23 -24 -26 -27 -28 -28
-24 -25 -25 -25 -26 -27 -28 -26 -22 -21 -23 -24 -24 -22 -21 -21 -21 -20 -20 -20 -20 -20 -20 -20 -21 -22 -22 -23 -23 -23 -23 -23 -23 -23 -23 -23 -23 -24 -25 -27 -28 -28 -28 -28
-25 -25 -25 -26 -27 -26 -26 -25 -25 -24 -24 -24 -23 -22 -21 -21 -21 -20 -20 -20 -21 -21 -21 -22 -23 -23 -23 -22 -23 -24 -23 -23 -23 -23 -23 -24 -25 -27 -28 -28 -28 -28 -28 -28
-24 -25 -26 -27 -26 -26 -25 -25 -25 -24 -23 -22 -22 -21 -21 -21 -21 -21 -22 -22 -22 -22 -23 -23 -23 -23 -23 -23 -23 -23 -23 -23 -24 -24 -25 -27 -28 -28 -28 -28 -28 -28 -28 -28
-25 -25 -25 -25 -25 -25 -25 -25 -24 -23 -23 -22 -22 -21 -22 -21 -21 -22 -22 -23 -23 -23 -23 -23 -24 -23 -23 -23 -23 -23 -23 -24 -25 -27 -29 -29 -29 -29 -29 -29 -28 -28 -28 -28
-23 -23 -24 -25 -25 -25 -24 -24 -23 -22 -22 -22 -22 -22 -22 -23 -23 -23 -23 -23 -24 -24 -24 -24 -23 -23 -24 -24 -25 -26 -27 -27 -29 -30 -29 -29 -29 -29 -29 -29 -29 -28 -28 -28
-25 -24 -24 -24 -24 -24 -24 -23 -23 -22 -22 -22 -22 -22 -23 -23 -24 -24 -24 -24 -24 -24 -24 -24 -25 -26 -27 -28 -29 -29 -29 -30 -30 -30 -30 -29 -29 -29 -29 -29 -29 -29 -29 -29
-23 -23 -23 -23 -23 -23 -23 -23 -23 -23 -23 -24 -24 -24 -24 -24 -24 -24 -24 -24 -24 -25 -27 -28 -28 -29 -29 -29 -29 -30 -30 -30 -30 -30 -29 -29 -29 -29 -29 -29 -29 -29 -29 -29
-25 -25 -25 -24 -24 -24 -24 -24 -24 -24 -24 -24 -24 -24 -24 -24 -24 -24 -25 -27 -28 -29 -29 -29 -29 -29 -29 -30 -30 -30 -30 -30 -30 -30 -30 -29 -29 -29 -29 -29 -29 -29 -29 -29
-25 -25 -25 -25 -25 -24 -24 -24 -24 -24 -25 -25 -25 -25 -25 -26 -27 -28 -29 -29 -29 -29 -29 -29 -30 -30 -30 -30 -30 -30 -30 -30 -30 -30 -30 -30 -30 -29 -29 -29 -29 -29 -29 -29
-26 -25 -25 -25 -25 -25 -25 -25 -25 -25 -25 -25 -26 -27 -28 -29 -28 -29 -29 -29 -29 -29 -29 -30 -30 -30 -30 -30 -30 -30 -30 -30 -30 -30 -30 -30 -30 -30 -30 -29 -29 -29 -29 -29
-27 -27 -27 -27 -27 -26 -26 -27 -27 -28 -29 -29 -29 -29 -29 -29 -29 -29 -29 -30 -29 -30 -30 -30 -30 -29 -29 -30 -30 -30 -30 -30 -30 -30 -30 -30 -30 -30 -30 -30 -30 -30 -30 -30